sat.trackr.live / text

‹ back to catalog

ET-001A

NORAD 69925 · 2026-156BJ

PAYLOAD ACTIVE UNKNOWN

§ Identity

Operator
Country
US
Launch date
2026-07-07
Launch site
AFWTR
Launch vehicle
Mass (kg)
RCS (m²)

External: N2YO · Heavens-Above · Gunter

§ Orbital elements

Epoch: 2026-09-19T15:09:47.859552Z

Period
96.47 min
Inclination
97.7427°
Eccentricity
0.0006669
Mean motion
14.92647734 rev/d
Perigee alt
585.0 km
Apogee alt
594.3 km
Semi-major
6,967.8 km
B*
2.2358e-4
RAAN
161.8878°
Arg perigee
268.6293°
Mean anomaly
91.4163°
Rev number
1,108

§ Raw data

ET-001A1 69925U 26156BJ  26262.63180393  .00002248  00000+0  22358-3 0  99902 69925  97.7427 161.8878 0006669 268.6293  91.4163 14.92647734 11082

JSON: /api/v1/satellites/69925 · /tle

For live sub-satellite position, see the globe view (requires WebGL).

§ Visibility from observer

Set your observer location to see the next 7 days of passes ≥ 10°. The values pass through the URL so the page stays shareable.

No JS? Fill the form by hand. The geolocation button needs JavaScript.